,,PA_Meas_PMT16A,,PR_Meas_QMR101_102,,RH_Meas_QMH101,,SR_Meas_QMS101,,TA_Meas_QMH101,,GenWind,,GenWind,
time,status,PA,status,PR,status,RH,status,SR,status,TA,status,DirAvg,status,SpdAvg,
2009-11-08, 00:00:04,VALID,916.361,VALID,0,VALID,96.4972,VALID,0,VALID,20.8113,VALID,354,VALID,0,
2009-11-08, 00:01:04,VALID,916.341,VALID,0,VALID,96.6192,VALID,0.107441,VALID,20.8699,VALID,354,VALID,0.204297,
2009-11-08, 00:02:04,VALID,916.312,VALID,0,VALID,96.5887,VALID,0,VALID,20.8699,VALID,354,VALID,0,
2009-11-08, 00:03:04,VALID,916.305,VALID,0,VALID,96.5277,VALID,0,VALID,20.8504,VALID,354,VALID,0,
2009-11-08, 00:04:04,VALID,916.292,VALID,0,VALID,96.5734,VALID,0,VALID,20.8488,VALID,354,VALID,0,
2009-11-08, 00:05:04,VALID,916.261,VALID,0,VALID,96.5582,VALID,0,VALID,20.8894,VALID,354,VALID,0,
2009-11-08, 00:06:04,VALID,916.253,VALID,0,VALID,96.5811,VALID,0,VALID,20.8894,VALID,354,VALID,0.245312,
2009-11-08, 00:07:04,VALID,916.242,VALID,0,VALID,96.5963,VALID,0,VALID,20.9089,VALID,354,VALID,0.453906,
2009-11-08, 00:08:04,VALID,916.231,VALID,0,VALID,96.4438,VALID,0,VALID,20.8699,VALID,354,VALID,0,
2009-11-08, 00:09:04,VALID,916.193,VALID,0,VALID,96.4591,VALID,0,VALID,20.8519,VALID,354,VALID,0,
2009-11-08, 00:10:04,VALID,916.189,VALID,0,VALID,96.5582,VALID,0,VALID,20.891,VALID,354,VALID,0.153906,
2009-11-08, 00:11:04,VALID,916.184,VALID,0,VALID,96.4972,VALID,0,VALID,20.8504,VALID,354,VALID,0,
2009-11-08, 00:12:04,VALID,916.12,VALID,0,VALID,96.5734,VALID,0,VALID,20.9105,VALID,354,VALID,0,
2009-11-08, 00:13:04,VALID,916.1,VALID,0,VALID,96.6039,VALID,0,VALID,20.93,VALID,354,VALID,0.251563,
2009-11-08, 00:14:04,VALID,916.069,VALID,0,VALID,96.5887,VALID,0,VALID,20.93,VALID,354,VALID,0.503125,
2009-11-08, 00:15:04,VALID,916.079,VALID,0,VALID,96.5201,VALID,0,VALID,20.93,VALID,354,VALID,0.694141,
2009-11-08, 00:16:04,VALID,916.045,VALID,0,VALID,96.4438,VALID,0,VALID,20.9105,VALID,354,VALID,0.605859,
2009-11-08, 00:17:04,VALID,916.064,VALID,0,VALID,96.4286,VALID,0,VALID,20.9105,VALID,354,VALID,0.674609,
2009-11-08, 00:18:04,VALID,916.019,VALID,0,VALID,96.3752,VALID,0,VALID,20.9105,VALID,354,VALID,0.778125,
2009-11-08, 00:19:04,VALID,916.034,VALID,0,VALID,96.3219,VALID,0,VALID,20.93,VALID,354,VALID,0.446875,
2009-11-08, 00:20:04,VALID,916.03,VALID,0,VALID,96.2609,VALID,0,VALID,20.93,VALID,354,VALID,0.166406,
2009-11-08, 00:21:04,VALID,916.016,VALID,0,VALID,96.2456,VALID,0,VALID,20.9495,VALID,354,VALID,0.0398437,
2009-11-08, 00:22:04,VALID,916.022,VALID,0,VALID,96.1846,VALID,0,VALID,20.969,VALID,354,VALID,0.460547,
2009-11-08, 00:23:04,VALID,915.987,VALID,0,VALID,96.0398,VALID,0,VALID,20.969,VALID,354,VALID,0.485938,
2009-11-08, 00:24:04,VALID,915.976,VALID,0,VALID,95.9407,VALID,0,VALID,20.9284,VALID,354,VALID,0.566797,
2009-11-08, 00:25:04,VALID,915.964,VALID,0,VALID,95.7958,VALID,0.107441,VALID,20.9089,VALID,354,VALID,0.883594,
2009-11-08, 00:26:04,VALID,915.961,VALID,0,VALID,95.7501,VALID,0,VALID,20.8894,VALID,354,VALID,0.607031,
2009-11-08, 00:27:04,VALID,915.943,VALID,0,VALID,95.7272,VALID,0,VALID,20.8894,VALID,354,VALID,0.626172,
2009-11-08, 00:28:04,VALID,915.924,VALID,0,VALID,95.7349,VALID,0,VALID,20.8894,VALID,353,VALID,0.376563,
2009-11-08, 00:29:04,VALID,915.912,VALID,0,VALID,95.7349,VALID,0,VALID,20.8894,VALID,354,VALID,0.290234,
2009-11-08, 00:30:04,VALID,915.918,VALID,0,VALID,95.7501,VALID,0,VALID,20.9089,VALID,354,VALID,0.347266,
2009-11-08, 00:31:04,VALID,915.905,VALID,0,VALID,95.7044,VALID,0,VALID,20.9284,VALID,354,VALID,0.000390625,
2009-11-08, 00:32:04,VALID,915.846,VALID,0,VALID,95.5976,VALID,0.107441,VALID,20.9284,VALID,354,VALID,0.00195313,
2009-11-08, 00:33:04,VALID,915.839,VALID,0,VALID,95.5062,VALID,0,VALID,20.9089,VALID,354,VALID,0.622266,
2009-11-08, 00:34:04,VALID,915.822,VALID,0,VALID,95.5138,VALID,0,VALID,20.8894,VALID,354,VALID,0.33125,
2009-11-08, 00:35:04,VALID,915.827,VALID,0,VALID,95.59,VALID,0,VALID,20.8894,VALID,354,VALID,0.0386719,
2009-11-08, 00:36:04,VALID,915.843,VALID,0,VALID,95.3384,VALID,0,VALID,20.8894,VALID,354,VALID,0.931641,
2009-11-08, 00:37:04,VALID,915.849,VALID,0,VALID,94.9954,VALID,0,VALID,20.7918,VALID,354,VALID,0.796094,
2009-11-08, 00:38:04,VALID,915.834,VALID,0,VALID,95.1783,VALID,0.107441,VALID,20.7123,VALID,354,VALID,0.296875,
2009-11-08, 00:39:04,VALID,915.848,VALID,0,VALID,95.4528,VALID,0,VALID,20.7138,VALID,354,VALID,0,
2009-11-08, 00:40:04,VALID,915.843,VALID,0,VALID,95.5748,VALID,0.107441,VALID,20.6943,VALID,354,VALID,0.0699219,
2009-11-08, 00:41:04,VALID,915.827,VALID,0,VALID,95.651,VALID,0,VALID,20.6943,VALID,354,VALID,0.0179687,
2009-11-08, 00:42:04,VALID,915.824,VALID,0,VALID,95.6815,VALID,0,VALID,20.6943,VALID,354,VALID,0,
2009-11-08, 00:43:04,VALID,915.807,VALID,0,VALID,95.7501,VALID,0,VALID,20.6943,VALID,353,VALID,0,
2009-11-08, 00:44:04,VALID,915.802,VALID,0,VALID,95.773,VALID,0,VALID,20.6748,VALID,354,VALID,0.331641,
2009-11-08, 00:45:04,VALID,915.764,VALID,0,VALID,95.8492,VALID,0,VALID,20.6748,VALID,354,VALID,0.375781,
2009-11-08, 00:46:04,VALID,915.769,VALID,0,VALID,95.9254,VALID,0,VALID,20.6943,VALID,354,VALID,0,
2009-11-08, 00:47:04,VALID,915.768,VALID,0,VALID,95.9636,VALID,0,VALID,20.7138,VALID,354,VALID,0.0152344,
2009-11-08, 00:48:04,VALID,915.808,VALID,0,VALID,96.0169,VALID,0.107441,VALID,20.7138,VALID,354,VALID,0,
2009-11-08, 00:49:04,VALID,915.783,VALID,0,VALID,96.055,VALID,0,VALID,20.7138,VALID,353,VALID,0,
2009-11-08, 00:50:04,VALID,915.754,VALID,0,VALID,96.1008,VALID,0,VALID,20.7138,VALID,354,VALID,0.264453,
2009-11-08, 00:51:04,VALID,915.737,VALID,0,VALID,96.0322,VALID,0,VALID,20.7138,VALID,354,VALID,0.362109,
2009-11-08, 00:52:04,VALID,915.713,VALID,0,VALID,96.116,VALID,0,VALID,20.7138,VALID,354,VALID,0.385547,
2009-11-08, 00:53:04,VALID,915.709,VALID,0,VALID,96.1694,VALID,0,VALID,20.7138,VALID,354,VALID,0.603516,
2009-11-08, 00:54:04,VALID,915.667,VALID,0,VALID,96.1846,VALID,0,VALID,20.7138,VALID,354,VALID,0.344141,
2009-11-08, 00:55:04,VALID,915.664,VALID,0,VALID,96.238,VALID,0,VALID,20.7333,VALID,354,VALID,0.353125,
2009-11-08, 00:56:04,VALID,915.679,VALID,0,VALID,96.2151,VALID,0,VALID,20.7123,VALID,354,VALID,0.203516,
2009-11-08, 00:57:04,VALID,915.648,VALID,0,VALID,96.1618,VALID,0,VALID,20.7138,VALID,354,VALID,0.359375,
2009-11-08, 00:58:04,VALID,915.645,VALID,0,VALID,96.1008,VALID,0,VALID,20.6943,VALID,354,VALID,0.0238281,
2009-11-08, 00:59:04,VALID,915.608,VALID,0,VALID,96.1465,VALID,0,VALID,20.7138,VALID,354,VALID,0.245703,
2009-11-08, 01:00:04,VALID,915.587,VALID,0,VALID,96.0855,VALID,0,VALID,20.6943,VALID,354,VALID,0.0847656,
2009-11-08, 01:01:04,VALID,915.609,VALID,0,VALID,95.6129,VALID,0,VALID,20.6358,VALID,354,VALID,0,
2009-11-08, 01:02:04,VALID,915.617,VALID,0,VALID,95.2698,VALID,0,VALID,20.5773,VALID,354,VALID,0.170312,
2009-11-08, 01:03:04,VALID,915.597,VALID,0,VALID,94.9649,VALID,0,VALID,20.4993,VALID,354,VALID,0.5625,
2009-11-08, 01:04:04,VALID,915.616,VALID,0,VALID,94.8124,VALID,0,VALID,20.4408,VALID,354,VALID,0.533203,
2009-11-08, 01:05:04,VALID,915.59,VALID,0,VALID,94.942,VALID,0,VALID,20.3628,VALID,354,VALID,0.541016,
2009-11-08, 01:06:04,VALID,915.595,VALID,0,VALID,95.2698,VALID,0,VALID,20.3253,VALID,354,VALID,0.449609,
2009-11-08, 01:07:04,VALID,915.587,VALID,0,VALID,95.4604,VALID,0,VALID,20.2653,VALID,354,VALID,0.351563,
2009-11-08, 01:08:04,VALID,915.57,VALID,0,VALID,95.651,VALID,0,VALID,20.2458,VALID,354,VALID,0.267969,
2009-11-08, 01:09:04,VALID,915.577,VALID,0,VALID,95.7882,VALID,0,VALID,20.2263,VALID,354,VALID,0.100781,
2009-11-08, 01:10:04,VALID,915.564,VALID,0,VALID,95.9407,VALID,0,VALID,20.2473,VALID,354,VALID,0.126953,
2009-11-08, 01:11:04,VALID,915.518,VALID,0,VALID,96.1999,VALID,0,VALID,20.2653,VALID,354,VALID,0.189844,
2009-11-08, 01:12:04,VALID,915.523,VALID,0,VALID,96.1999,VALID,0,VALID,20.2653,VALID,354,VALID,0.187109,
2009-11-08, 01:13:04,VALID,915.494,VALID,0,VALID,96.1008,VALID,0,VALID,20.2263,VALID,354,VALID,0.0152344,
2009-11-08, 01:14:04,VALID,915.471,VALID,0,VALID,96.1236,VALID,0,VALID,20.2263,VALID,354,VALID,0.103906,
2009-11-08, 01:15:04,VALID,915.454,VALID,0,VALID,96.0855,VALID,0,VALID,20.2068,VALID,354,VALID,0.0234375,
2009-11-08, 01:16:04,VALID,915.497,VALID,0,VALID,96.1313,VALID,0,VALID,20.2473,VALID,354,VALID,0.297656,
2009-11-08, 01:17:04,VALID,915.42,VALID,0,VALID,96.0855,VALID,0,VALID,20.2068,VALID,354,VALID,0.297656,
2009-11-08, 01:18:04,VALID,915.44,VALID,0,VALID,96.116,VALID,0,VALID,20.2263,VALID,354,VALID,0.441797,
2009-11-08, 01:19:04,VALID,915.432,VALID,0,VALID,96.2761,VALID,0,VALID,20.2668,VALID,354,VALID,0.600391,
2009-11-08, 01:20:04,VALID,915.421,VALID,0,VALID,96.3142,VALID,0,VALID,20.2863,VALID,354,VALID,0.788281,
2009-11-08, 01:21:04,VALID,915.443,VALID,0,VALID,96.3829,VALID,0,VALID,20.2848,VALID,353,VALID,0.4875,
2009-11-08, 01:22:04,VALID,915.419,VALID,0,VALID,96.3676,VALID,0,VALID,20.2848,VALID,354,VALID,0.513281,
2009-11-08, 01:23:04,VALID,915.376,VALID,0,VALID,96.4743,VALID,0,VALID,20.3043,VALID,354,VALID,0.292188,
2009-11-08, 01:24:04,VALID,915.395,VALID,0,VALID,96.5429,VALID,0,VALID,20.3238,VALID,353,VALID,0.295703,
2009-11-08, 01:25:04,VALID,915.377,VALID,0,VALID,96.5811,VALID,0,VALID,20.3238,VALID,353,VALID,0.471875,
2009-11-08, 01:26:04,VALID,915.311,VALID,0,VALID,96.6573,VALID,0,VALID,20.3628,VALID,354,VALID,0.253516,
2009-11-08, 01:27:04,VALID,915.316,VALID,0,VALID,96.6954,VALID,0,VALID,20.3823,VALID,353,VALID,0.777344,
2009-11-08, 01:28:04,VALID,915.294,VALID,0,VALID,96.7488,VALID,0,VALID,20.4408,VALID,353,VALID,0.447266,
2009-11-08, 01:29:04,VALID,915.267,VALID,0,VALID,96.7107,VALID,0,VALID,20.4603,VALID,353,VALID,0.556641,
2009-11-08, 01:30:04,VALID,915.247,VALID,0,VALID,96.7335,VALID,0,VALID,20.4798,VALID,353,VALID,0.347266,
2009-11-08, 01:31:04,VALID,915.211,VALID,0,VALID,96.6878,VALID,0,VALID,20.4798,VALID,353,VALID,0.1375,
2009-11-08, 01:32:04,VALID,915.227,VALID,0,VALID,96.6497,VALID,0,VALID,20.4798,VALID,353,VALID,0.0894531,
2009-11-08, 01:33:04,VALID,915.178,VALID,0,VALID,96.6725,VALID,0,VALID,20.4993,VALID,353,VALID,0.165625,
2009-11-08, 01:34:04,VALID,915.146,VALID,0,VALID,96.6344,VALID,0,VALID,20.4993,VALID,353,VALID,0.277734,
2009-11-08, 01:35:04,VALID,915.133,VALID,0,VALID,96.5658,VALID,0,VALID,20.4993,VALID,353,VALID,0.158203,
2009-11-08, 01:36:04,VALID,915.162,VALID,0,VALID,96.4591,VALID,0,VALID,20.5009,VALID,353,VALID,0,
2009-11-08, 01:37:04,VALID,915.143,VALID,0,VALID,96.4133,VALID,0,VALID,20.4618,VALID,353,VALID,0,
2009-11-08, 01:38:04,VALID,915.169,VALID,0,VALID,96.3676,VALID,0,VALID,20.4618,VALID,353,VALID,0,
2009-11-08, 01:39:04,VALID,915.167,VALID,0,VALID,96.0169,VALID,0,VALID,20.3628,VALID,353,VALID,0.137891,
2009-11-08, 01:40:04,VALID,915.171,VALID,0,VALID,95.8187,VALID,0,VALID,20.3043,VALID,353,VALID,0.614062,
2009-11-08, 01:41:04,VALID,915.154,VALID,0,VALID,95.9636,VALID,0,VALID,20.3043,VALID,353,VALID,0.583984,
2009-11-08, 01:42:04,VALID,915.159,VALID,0,VALID,96.1084,VALID,0,VALID,20.3043,VALID,353,VALID,0.432422,
2009-11-08, 01:43:04,VALID,915.144,VALID,0,VALID,96.3371,VALID,0,VALID,20.3238,VALID,353,VALID,0.189063,
2009-11-08, 01:44:04,VALID,915.091,VALID,0,VALID,96.4438,VALID,0,VALID,20.3238,VALID,353,VALID,0.163672,
2009-11-08, 01:45:04,VALID,915.11,VALID,0,VALID,96.5429,VALID,0,VALID,20.3628,VALID,353,VALID,0.471484,
2009-11-08, 01:46:04,VALID,915.075,VALID,0,VALID,96.703,VALID,0.107441,VALID,20.4018,VALID,353,VALID,0.380859,
2009-11-08, 01:47:04,VALID,915.066,VALID,0,VALID,96.7259,VALID,0,VALID,20.4018,VALID,353,VALID,0.421484,
2009-11-08, 01:48:04,VALID,915.041,VALID,0,VALID,96.642,VALID,0,VALID,20.3628,VALID,353,VALID,0.355859,
2009-11-08, 01:49:04,VALID,915.057,VALID,0,VALID,96.703,VALID,0,VALID,20.3628,VALID,353,VALID,0,
2009-11-08, 01:50:04,VALID,915.056,VALID,0,VALID,96.7411,VALID,0,VALID,20.3628,VALID,353,VALID,0.171094,
2009-11-08, 01:51:04,VALID,915.035,VALID,0,VALID,96.7183,VALID,0,VALID,20.3628,VALID,353,VALID,0,
2009-11-08, 01:52:04,VALID,915.007,VALID,0,VALID,96.7183,VALID,0,VALID,20.3433,VALID,353,VALID,0,
2009-11-08, 01:53:04,VALID,915.003,VALID,0,VALID,96.6802,VALID,0,VALID,20.3043,VALID,353,VALID,0.371094,
2009-11-08, 01:54:04,VALID,915.011,VALID,0,VALID,96.642,VALID,0,VALID,20.3043,VALID,353,VALID,0.486719,
2009-11-08, 01:55:04,VALID,914.977,VALID,0,VALID,96.6725,VALID,0,VALID,20.2848,VALID,353,VALID,0.554688,
2009-11-08, 01:56:04,VALID,914.967,VALID,0,VALID,96.6802,VALID,0,VALID,20.2653,VALID,353,VALID,0.441016,
2009-11-08, 01:57:04,VALID,914.925,VALID,0,VALID,96.7335,VALID,0,VALID,20.2458,VALID,353,VALID,0.422656,
2009-11-08, 01:58:04,VALID,914.911,VALID,0,VALID,96.8021,VALID,0,VALID,20.2458,VALID,353,VALID,0.490625,
2009-11-08, 01:59:04,VALID,914.885,VALID,0,VALID,96.6878,VALID,0,VALID,20.1873,VALID,353,VALID,0.709375,
2009-11-08, 02:00:04,VALID,914.867,VALID,0,VALID,96.7107,VALID,0,VALID,20.1678,VALID,353,VALID,0.689062,
2009-11-08, 02:01:04,VALID,914.875,VALID,0,VALID,96.7335,VALID,0,VALID,20.1483,VALID,353,VALID,0.618359,
2009-11-08, 02:02:04,VALID,914.852,VALID,0,VALID,96.8403,VALID,0,VALID,20.1693,VALID,353,VALID,0.666406,
2009-11-08, 02:03:04,VALID,914.84,VALID,0,VALID,96.7945,VALID,0.107441,VALID,20.1288,VALID,353,VALID,0.78125,
2009-11-08, 02:04:04,VALID,914.827,VALID,0,VALID,96.8784,VALID,0.107441,VALID,20.1288,VALID,353,VALID,0.854297,
2009-11-08, 02:05:04,VALID,914.802,VALID,0,VALID,96.9241,VALID,0,VALID,20.1272,VALID,353,VALID,0.65,
2009-11-08, 02:06:04,VALID,914.797,VALID,0,VALID,96.9546,VALID,0,VALID,20.1498,VALID,353,VALID,0.376953,
2009-11-08, 02:07:04,VALID,914.723,VALID,0,VALID,96.9927,VALID,0,VALID,20.1678,VALID,353,VALID,0.95625,
2009-11-08, 02:08:04,VALID,914.701,VALID,0,VALID,97.0385,VALID,0,VALID,20.1678,VALID,353,VALID,0.969531,
2009-11-08, 02:09:04,VALID,914.711,VALID,0,VALID,97.0766,VALID,0,VALID,20.1873,VALID,353,VALID,1.00859,
2009-11-08, 02:10:04,VALID,914.667,VALID,0,VALID,97.0994,VALID,0,VALID,20.2083,VALID,353,VALID,0.669531,
2009-11-08, 02:11:04,VALID,914.713,VALID,0,VALID,97.1071,VALID,0,VALID,20.2083,VALID,353,VALID,0.696875,
2009-11-08, 02:12:04,VALID,914.688,VALID,0,VALID,97.069,VALID,0,VALID,20.1693,VALID,353,VALID,0.707031,
2009-11-08, 02:13:04,VALID,914.715,VALID,0,VALID,97.1147,VALID,0,VALID,20.1693,VALID,353,VALID,0.517578,
2009-11-08, 02:14:04,VALID,914.678,VALID,0,VALID,97.1299,VALID,0,VALID,20.1483,VALID,353,VALID,0.580078,
2009-11-08, 02:15:04,VALID,914.69,VALID,0,VALID,97.1223,VALID,0,VALID,20.1483,VALID,353,VALID,0.757031,
2009-11-08, 02:16:04,VALID,914.724,VALID,0,VALID,97.1452,VALID,0.107441,VALID,20.1483,VALID,353,VALID,0.493359,
2009-11-08, 02:17:04,VALID,914.712,VALID,0,VALID,97.1604,VALID,0,VALID,20.1498,VALID,353,VALID,0.373437,
2009-11-08, 02:18:04,VALID,914.714,VALID,0,VALID,97.1681,VALID,0,VALID,20.1498,VALID,353,VALID,0.578516,
2009-11-08, 02:19:04,VALID,914.715,VALID,0,VALID,97.1833,VALID,0,VALID,20.1693,VALID,353,VALID,0.821484,
2009-11-08, 02:20:04,VALID,914.717,VALID,0,VALID,97.1909,VALID,0,VALID,20.1288,VALID,353,VALID,0.564453,
2009-11-08, 02:21:04,VALID,914.73,VALID,0,VALID,97.2062,VALID,0,VALID,20.1498,VALID,353,VALID,0.571094,
2009-11-08, 02:22:04,VALID,914.743,VALID,0,VALID,97.2062,VALID,0,VALID,20.1303,VALID,353,VALID,0.471094,
2009-11-08, 02:23:04,VALID,914.722,VALID,0,VALID,97.2138,VALID,0,VALID,20.1303,VALID,353,VALID,0.377734,
2009-11-08, 02:24:04,VALID,914.711,VALID,0,VALID,97.2367,VALID,0,VALID,20.1288,VALID,353,VALID,0.650781,
2009-11-08, 02:25:04,VALID,914.69,VALID,0,VALID,97.2367,VALID,0,VALID,20.1093,VALID,353,VALID,0.596484,
2009-11-08, 02:26:04,VALID,914.661,VALID,0,VALID,97.2519,VALID,0,VALID,20.1288,VALID,353,VALID,0.43125,
2009-11-08, 02:27:04,VALID,914.683,VALID,0,VALID,97.2672,VALID,0,VALID,20.1288,VALID,353,VALID,0.413281,
2009-11-08, 02:28:04,VALID,914.657,VALID,0,VALID,97.2672,VALID,0,VALID,20.1288,VALID,353,VALID,0.774219,
2009-11-08, 02:29:04,VALID,914.682,VALID,0,VALID,97.2672,VALID,0,VALID,20.1498,VALID,353,VALID,0.391406,
2009-11-08, 02:30:04,VALID,914.683,VALID,0,VALID,97.1757,VALID,0,VALID,20.0718,VALID,353,VALID,0.500391,
2009-11-08, 02:31:04,VALID,914.715,VALID,0,VALID,97.1986,VALID,0,VALID,20.0118,VALID,353,VALID,0.945313,
2009-11-08, 02:32:04,VALID,914.678,VALID,0,VALID,97.229,VALID,0,VALID,20.0313,VALID,353,VALID,0.866797,
2009-11-08, 02:33:04,VALID,914.677,VALID,0,VALID,97.2672,VALID,0,VALID,20.0328,VALID,353,VALID,0.476172,
2009-11-08, 02:34:04,VALID,914.682,VALID,0,VALID,97.2977,VALID,0,VALID,20.0328,VALID,353,VALID,0.380078,
2009-11-08, 02:35:04,VALID,914.682,VALID,0,VALID,97.2977,VALID,0,VALID,20.0523,VALID,353,VALID,0.278516,
2009-11-08, 02:36:04,VALID,914.69,VALID,0,VALID,97.3205,VALID,0,VALID,20.0313,VALID,353,VALID,0.570703,
2009-11-08, 02:37:04,VALID,914.677,VALID,0,VALID,97.29,VALID,0,VALID,20.0313,VALID,353,VALID,0.5875,
2009-11-08, 02:38:04,VALID,914.694,VALID,0,VALID,97.2824,VALID,0,VALID,20.0523,VALID,353,VALID,0.383203,
2009-11-08, 02:39:04,VALID,914.68,VALID,0,VALID,97.2824,VALID,0,VALID,20.0508,VALID,353,VALID,0.252734,
2009-11-08, 02:40:04,VALID,914.687,VALID,0,VALID,97.2595,VALID,0,VALID,20.0508,VALID,353,VALID,0,
2009-11-08, 02:41:04,VALID,914.728,VALID,0,VALID,97.1757,VALID,0.107441,VALID,20.0118,VALID,353,VALID,0,
2009-11-08, 02:42:04,VALID,914.708,VALID,0,VALID,97.1757,VALID,0,VALID,19.9908,VALID,353,VALID,0,
2009-11-08, 02:43:04,VALID,914.73,VALID,0,VALID,97.1757,VALID,0,VALID,20.0328,VALID,353,VALID,0.114844,
2009-11-08, 02:44:04,VALID,914.729,VALID,0,VALID,97.1452,VALID,0,VALID,20.0328,VALID,353,VALID,0.489062,
2009-11-08, 02:45:04,VALID,914.733,VALID,0,VALID,97.1147,VALID,0,VALID,19.9923,VALID,353,VALID,0.324609,
2009-11-08, 02:46:04,VALID,914.747,VALID,0,VALID,97.0766,VALID,0,VALID,19.9923,VALID,353,VALID,0.360156,
2009-11-08, 02:47:04,VALID,914.771,VALID,0,VALID,97.0156,VALID,0,VALID,19.9338,VALID,353,VALID,0.350391,
2009-11-08, 02:48:04,VALID,914.738,VALID,0,VALID,96.9622,VALID,0,VALID,19.9143,VALID,353,VALID,0.805469,
2009-11-08, 02:49:04,VALID,914.742,VALID,0,VALID,96.9317,VALID,0,VALID,19.8948,VALID,353,VALID,1.14805,
2009-11-08, 02:50:04,VALID,914.716,VALID,0,VALID,96.9851,VALID,0,VALID,19.9158,VALID,178,VALID,0.604688,
2009-11-08, 02:51:04,VALID,914.717,VALID,0,VALID,96.9622,VALID,0,VALID,19.9143,VALID,178,VALID,0.415234,
2009-11-08, 02:52:04,VALID,914.703,VALID,0,VALID,96.886,VALID,0,VALID,19.8963,VALID,178,VALID,0.752344,
2009-11-08, 02:53:04,VALID,914.677,VALID,0,VALID,96.9241,VALID,0,VALID,19.8948,VALID,178,VALID,1.25195,
2009-11-08, 02:54:04,VALID,914.684,VALID,0,VALID,96.9012,VALID,0,VALID,19.8948,VALID,178,VALID,0.722656,
2009-11-08, 02:55:04,VALID,914.672,VALID,0,VALID,96.8784,VALID,0,VALID,19.8948,VALID,178,VALID,0.529297,
2009-11-08, 02:56:04,VALID,914.64,VALID,0,VALID,96.9241,VALID,0,VALID,19.9158,VALID,178,VALID,0.48125,
2009-11-08, 02:57:04,VALID,914.659,VALID,0,VALID,96.9546,VALID,0,VALID,19.8948,VALID,178,VALID,0.652344,
2009-11-08, 02:58:04,VALID,914.613,VALID,0,VALID,96.9698,VALID,0,VALID,19.9353,VALID,178,VALID,0.853516,
2009-11-08, 02:59:04,VALID,914.623,VALID,0,VALID,97.0156,VALID,0,VALID,19.9158,VALID,178,VALID,1.05,
2009-11-08, 03:00:04,VALID,914.609,VALID,0,VALID,97.0461,VALID,0.107441,VALID,19.9158,VALID,177,VALID,1.14648,
2009-11-08, 03:01:04,VALID,914.606,VALID,0,VALID,97.0766,VALID,0,VALID,19.8948,VALID,177,VALID,0.898828,
2009-11-08, 03:02:04,VALID,914.632,VALID,0,VALID,97.0918,VALID,0,VALID,19.9158,VALID,177,VALID,0.936328,
2009-11-08, 03:03:04,VALID,914.557,VALID,0,VALID,97.1147,VALID,0,VALID,19.8753,VALID,177,VALID,0.632813,
2009-11-08, 03:04:04,VALID,914.574,VALID,0,VALID,97.0613,VALID,0,VALID,19.8753,VALID,177,VALID,0.424219,
2009-11-08, 03:05:04,VALID,914.593,VALID,0,VALID,96.8936,VALID,0,VALID,19.7793,VALID,177,VALID,0.486328,
2009-11-08, 03:06:04,VALID,914.598,VALID,0,VALID,96.9012,VALID,0,VALID,19.6998,VALID,177,VALID,0.335156,
2009-11-08, 03:07:04,VALID,914.552,VALID,0,VALID,96.9775,VALID,0,VALID,19.6818,VALID,177,VALID,0.274219,
2009-11-08, 03:08:04,VALID,914.551,VALID,0,VALID,97.0842,VALID,0,VALID,19.7013,VALID,177,VALID,0.765625,
2009-11-08, 03:09:04,VALID,914.572,VALID,0,VALID,97.1223,VALID,0,VALID,19.7013,VALID,177,VALID,0.851172,
2009-11-08, 03:10:04,VALID,914.5,VALID,0,VALID,97.1604,VALID,0,VALID,19.6608,VALID,177,VALID,0.598047,
2009-11-08, 03:11:04,VALID,914.467,VALID,0,VALID,97.2062,VALID,0,VALID,19.6998,VALID,177,VALID,0.135547,
2009-11-08, 03:12:04,VALID,914.454,VALID,0,VALID,97.2214,VALID,0.107441,VALID,19.6803,VALID,177,VALID,0.403906,
2009-11-08, 03:13:04,VALID,914.44,VALID,0,VALID,97.229,VALID,0,VALID,19.6803,VALID,177,VALID,0.469141,
2009-11-08, 03:14:04,VALID,914.424,VALID,0,VALID,97.2595,VALID,0,VALID,19.6803,VALID,177,VALID,0.457422,
2009-11-08, 03:15:04,VALID,914.39,VALID,0,VALID,97.2672,VALID,0,VALID,19.6803,VALID,177,VALID,0.316406,
2009-11-08, 03:16:04,VALID,914.404,VALID,0,VALID,97.2519,VALID,0,VALID,19.6803,VALID,177,VALID,0.245703,
2009-11-08, 03:17:04,VALID,914.394,VALID,0,VALID,97.2367,VALID,0,VALID,19.6413,VALID,177,VALID,0.678125,
2009-11-08, 03:18:04,VALID,914.419,VALID,0,VALID,97.2214,VALID,0,VALID,19.6218,VALID,177,VALID,1.11211,
2009-11-08, 03:19:04,VALID,914.409,VALID,0,VALID,97.2062,VALID,0,VALID,19.6038,VALID,177,VALID,0.908594,
2009-11-08, 03:20:04,VALID,914.402,VALID,0,VALID,97.2138,VALID,0,VALID,19.5828,VALID,177,VALID,0.779297,
2009-11-08, 03:21:04,VALID,914.442,VALID,0,VALID,97.2672,VALID,0,VALID,19.5828,VALID,177,VALID,0.676953,
2009-11-08, 03:22:04,VALID,914.454,VALID,0,VALID,97.29,VALID,0,VALID,19.6023,VALID,177,VALID,0.832812,
2009-11-08, 03:23:04,VALID,914.431,VALID,0,VALID,97.2977,VALID,0,VALID,19.6233,VALID,177,VALID,0.641797,
2009-11-08, 03:24:04,VALID,914.445,VALID,0,VALID,97.29,VALID,0,VALID,19.6038,VALID,177,VALID,0.619922,
2009-11-08, 03:25:04,VALID,914.421,VALID,0,VALID,97.2367,VALID,0.107441,VALID,19.5828,VALID,177,VALID,0.841797,
2009-11-08, 03:26:04,VALID,914.461,VALID,0,VALID,97.3129,VALID,0,VALID,19.6233,VALID,177,VALID,0.804297,
2009-11-08, 03:27:04,VALID,914.465,VALID,0,VALID,97.351,VALID,0.107441,VALID,19.6608,VALID,177,VALID,0.588281,
2009-11-08, 03:28:04,VALID,914.442,VALID,0,VALID,97.29,VALID,0.107441,VALID,19.6818,VALID,177,VALID,0.330469,
2009-11-08, 03:29:04,VALID,914.426,VALID,0,VALID,97.2595,VALID,0.107441,VALID,19.6413,VALID,177,VALID,0.399219,
2009-11-08, 03:30:04,VALID,914.43,VALID,0,VALID,97.2367,VALID,0,VALID,19.6218,VALID,177,VALID,0.55625,
2009-11-08, 03:31:04,VALID,914.445,VALID,0,VALID,97.1528,VALID,0.107441,VALID,19.5828,VALID,177,VALID,0.437891,
2009-11-08, 03:32:04,VALID,914.424,VALID,0,VALID,97.1528,VALID,0,VALID,19.5828,VALID,177,VALID,0.266406,
2009-11-08, 03:33:04,VALID,914.435,VALID,0,VALID,97.0766,VALID,0,VALID,19.5633,VALID,177,VALID,0.501562,
2009-11-08, 03:34:04,VALID,914.44,VALID,0,VALID,97.1299,VALID,0.107441,VALID,19.5828,VALID,177,VALID,0.369141,
2009-11-08, 03:35:04,VALID,914.442,VALID,0,VALID,97.0994,VALID,0,VALID,19.6023,VALID,177,VALID,0.537109,
2009-11-08, 03:36:04,VALID,914.455,VALID,0,VALID,97.0461,VALID,0,VALID,19.6023,VALID,177,VALID,0.302734,
2009-11-08, 03:37:04,VALID,914.489,VALID,0,VALID,96.9622,VALID,0.107441,VALID,19.5633,VALID,177,VALID,1.04492,
2009-11-08, 03:38:04,VALID,914.48,VALID,0,VALID,96.9851,VALID,0,VALID,19.6218,VALID,177,VALID,0.669922,
2009-11-08, 03:39:04,VALID,914.472,VALID,0,VALID,96.9241,VALID,0,VALID,19.7013,VALID,177,VALID,0.480859,
2009-11-08, 03:40:04,VALID,914.499,VALID,0,VALID,96.7869,VALID,0,VALID,19.7208,VALID,177,VALID,0.277734,
2009-11-08, 03:41:04,VALID,914.511,VALID,0,VALID,96.6344,VALID,0.107441,VALID,19.7208,VALID,177,VALID,0.823047,
2009-11-08, 03:42:04,VALID,914.478,VALID,0,VALID,96.5124,VALID,0,VALID,19.7583,VALID,177,VALID,0.892969,
2009-11-08, 03:43:04,VALID,914.474,VALID,0,VALID,96.4743,VALID,0.107441,VALID,19.8168,VALID,177,VALID,1.19883,
2009-11-08, 03:44:04,VALID,914.467,VALID,0,VALID,96.4591,VALID,0.107441,VALID,19.7973,VALID,177,VALID,1.0168,